• In Belarus
  • List of Countries
  • For 7 days
  • Water Temperature
  • Satellite Maps
  • Weather Map
  • Weather Widgets
  • user-avatar
    Login

    Hourly Weather Trashigang

    Today, 15 December, Friday

    Time Temperature Precipitation Wind Pressure Humidity
    00:00 +10°C° 0 mm 2 mps 627 mmHg 65%
    01:00 +9°C° 0 mm 2 mps 627 mmHg 63%
    02:00 +9°C° 0 mm 2 mps 627 mmHg 62%
    03:00 +9°C° 0 mm 2 mps 627 mmHg 60%
    04:00 +9°C° 0 mm 2 mps 627 mmHg 59%
    05:00 +8°C° 0 mm 2 mps 627 mmHg 57%
    06:00 +10°C° 0 mm 1 mps 626 mmHg 54%
    07:00 +12°C° 0 mm 1 mps 628 mmHg 51%
    08:00 +14°C° 0 mm 1 mps 629 mmHg 49%
    09:00 +18°C° 0 mm 1 mps 630 mmHg 47%
    10:00 +19°C° 0 mm 1 mps 629 mmHg 48%
    11:00 +18°C° 0 mm 2 mps 629 mmHg 49%
    12:00 +19°C° 0 mm 2 mps 630 mmHg 50%
    13:00 +19°C° 0 mm 2 mps 629 mmHg 54%
    14:00 +18°C° 0 mm 2 mps 629 mmHg 59%
    15:00 +17°C° 0 mm 2 mps 628 mmHg 64%
    16:00 +16°C° 0 mm 1 mps 628 mmHg 72%
    17:00 +14°C° 0 mm 1 mps 628 mmHg 79%
    18:00 +12°C° 0 mm 1 mps 627 mmHg 86%
    19:00 +12°C° 0 mm 1 mps 628 mmHg 81%
    20:00 +11°C° 0 mm 1 mps 628 mmHg 77%
    21:00 +11°C° 0 mm 1 mps 628 mmHg 72%
    22:00 +11°C° 0 mm 1 mps 628 mmHg 69%
    23:00 +11°C° 0 mm 1 mps 628 mmHg 65%

    Tomorrow, 16 December, Saturday

    Time Temperature Precipitation Wind Pressure Humidity
    00:00 +10°C° 0 mm 1 mps 628 mmHg 62%
    01:00 +10°C° 0 mm 1 mps 628 mmHg 59%
    02:00 +10°C° 0 mm 1 mps 628 mmHg 56%
    03:00 +10°C° 0 mm 1 mps 627 mmHg 53%
    04:00 +10°C° 0 mm 1 mps 627 mmHg 51%
    05:00 +10°C° 0 mm 1 mps 627 mmHg 49%
    06:00 +10°C° 0 mm 1 mps 627 mmHg 48%
    07:00 +12°C° 0 mm 1 mps 628 mmHg 45%
    08:00 +15°C° 0 mm 1 mps 630 mmHg 42%
    09:00 +19°C° 0 mm 1 mps 631 mmHg 39%
    10:00 +20°C° 0 mm 1 mps 631 mmHg 39%
    11:00 +19°C° 0 mm 2 mps 630 mmHg 40%
    12:00 +20°C° 0 mm 2 mps 630 mmHg 40%
    13:00 +20°C° 0 mm 2 mps 630 mmHg 45%
    14:00 +19°C° 0 mm 2 mps 629 mmHg 49%
    15:00 +18°C° 0 mm 2 mps 629 mmHg 54%
    16:00 +16°C° 0 mm 2 mps 629 mmHg 64%
    17:00 +14°C° 0 mm 1 mps 628 mmHg 73%
    18:00 +12°C° 0 mm 1 mps 628 mmHg 83%
    19:00 +12°C° 0 mm 1 mps 629 mmHg 77%
    20:00 +11°C° 0 mm 1 mps 629 mmHg 71%
    21:00 +10°C° 0 mm 2 mps 630 mmHg 65%
    22:00 +10°C° 0 mm 2 mps 630 mmHg 60%
    23:00 +10°C° 0 mm 2 mps 630 mmHg 56%

    Day after tomorrow, 17 December, Sunday

    Time Temperature Precipitation Wind Pressure Humidity
    00:00 +9°C° 0 mm 2 mps 630 mmHg 52%
    01:00 +9°C° 0 mm 2 mps 629 mmHg 49%
    02:00 +9°C° 0 mm 2 mps 629 mmHg 47%
    03:00 +9°C° 0 mm 2 mps 629 mmHg 45%
    04:00 +9°C° 0 mm 2 mps 629 mmHg 43%
    05:00 +8°C° 0 mm 2 mps 629 mmHg 42%
    06:00 +8°C° 0 mm 2 mps 629 mmHg 41%
    07:00 +12°C° 0 mm 1 mps 630 mmHg 38%
    08:00 +15°C° 0 mm 1 mps 631 mmHg 35%
    09:00 +19°C° 0 mm 1 mps 633 mmHg 32%
    10:00 +19°C° 0 mm 1 mps 632 mmHg 32%
    11:00 +19°C° 0 mm 2 mps 632 mmHg 33%
    12:00 +20°C° 0 mm 2 mps 632 mmHg 33%
    13:00 +20°C° 0 mm 2 mps 631 mmHg 37%
    14:00 +19°C° 0 mm 2 mps 630 mmHg 40%
    15:00 +18°C° 0 mm 2 mps 630 mmHg 43%
    16:00 +16°C° 0 mm 2 mps 629 mmHg 53%
    17:00 +13°C° 0 mm 1 mps 629 mmHg 63%
    18:00 +11°C° 0 mm 1 mps 629 mmHg 73%
    19:00 +11°C° 0 mm 1 mps 629 mmHg 68%
    20:00 +11°C° 0 mm 1 mps 629 mmHg 63%
    21:00 +10°C° 0 mm 1 mps 630 mmHg 59%
    22:00 +10°C° 0 mm 1 mps 629 mmHg 56%
    23:00 +10°C° 0 mm 1 mps 629 mmHg 54%

    18 December, Monday

    Time Temperature Precipitation Wind Pressure Humidity
    00:00 +10°C° 0 mm 1 mps 629 mmHg 52%
    01:00 +9°C° 0 mm 2 mps 629 mmHg 51%
    02:00 +9°C° 0 mm 2 mps 629 mmHg 50%
    03:00 +9°C° 0 mm 2 mps 628 mmHg 50%
    04:00 +9°C° 0 mm 2 mps 628 mmHg 49%
    05:00 +9°C° 0 mm 1 mps 628 mmHg 48%
    06:00 +9°C° 0 mm 1 mps 629 mmHg 48%
    07:00 +12°C° 0 mm 1 mps 630 mmHg 43%
    08:00 +15°C° 0 mm 1 mps 631 mmHg 39%
    09:00 +19°C° 0 mm 1 mps 633 mmHg 35%
    10:00 +20°C° 0 mm 1 mps 632 mmHg 35%
    11:00 +21°C° 0 mm 1 mps 632 mmHg 36%
    12:00 +21°C° 0 mm 2 mps 632 mmHg 36%
    13:00 +20°C° 0 mm 2 mps 631 mmHg 40%
    14:00 +20°C° 0 mm 2 mps 631 mmHg 44%
    15:00 +19°C° 0 mm 2 mps 630 mmHg 48%
    16:00 +16°C° 0 mm 1 mps 629 mmHg 59%
    17:00 +14°C° 0 mm 1 mps 629 mmHg 70%
    18:00 +11°C° 0 mm 1 mps 629 mmHg 81%
    19:00 +11°C° 0 mm 1 mps 629 mmHg 78%
    20:00 +11°C° 0 mm 1 mps 630 mmHg 74%
    21:00 +11°C° 0 mm 1 mps 630 mmHg 71%
    22:00 +11°C° 0 mm 1 mps 630 mmHg 67%
    23:00 +11°C° 0 mm 1 mps 630 mmHg 64%

    19 December, Tuesday

    Time Temperature Precipitation Wind Pressure Humidity
    00:00 +10°C° 0 mm 2 mps 629 mmHg 60%
    01:00 +10°C° 0 mm 2 mps 629 mmHg 58%
    02:00 +10°C° 0 mm 2 mps 629 mmHg 55%
    03:00 +10°C° 0 mm 2 mps 629 mmHg 52%
    04:00 +10°C° 0 mm 2 mps 629 mmHg 51%
    05:00 +10°C° 0 mm 2 mps 629 mmHg 49%
    06:00 +9°C° 0 mm 2 mps 629 mmHg 48%
    07:00 +13°C° 0 mm 1 mps 630 mmHg 44%
    08:00 +16°C° 0 mm 1 mps 632 mmHg 40%
    09:00 +20°C° 0 mm 1 mps 633 mmHg 36%
    10:00 +20°C° 0 mm 1 mps 633 mmHg 36%
    11:00 +21°C° 0 mm 1 mps 632 mmHg 36%
    12:00 +21°C° 0 mm 2 mps 632 mmHg 36%
    13:00 +20°C° 0 mm 2 mps 632 mmHg 40%
    14:00 +20°C° 0 mm 2 mps 631 mmHg 43%
    15:00 +19°C° 0 mm 2 mps 630 mmHg 47%
    16:00 +18°C° 0 mm 1 mps 630 mmHg 58%
    17:00 +14°C° 0 mm 1 mps 630 mmHg 69%
    18:00 +12°C° 0 mm 1 mps 629 mmHg 80%
    19:00 +11°C° 0 mm 1 mps 630 mmHg 78%
    20:00 +11°C° 0 mm 1 mps 630 mmHg 76%
    21:00 +11°C° 0 mm 1 mps 630 mmHg 75%
    22:00 +11°C° 0 mm 1 mps 630 mmHg 73%
    23:00 +11°C° 0 mm 1 mps 630 mmHg 71%

    20 December, Wednesday

    Time Temperature Precipitation Wind Pressure Humidity
    00:00 +11°C° 0 mm 1 mps 630 mmHg 68%
    01:00 +11°C° 0 mm 1 mps 630 mmHg 66%
    02:00 +11°C° 0 mm 1 mps 629 mmHg 64%
    03:00 +11°C° 0 mm 1 mps 629 mmHg 62%
    04:00 +10°C° 0 mm 1 mps 629 mmHg 61%
    05:00 +10°C° 0 mm 1 mps 629 mmHg 60%
    06:00 +10°C° 0 mm 1 mps 629 mmHg 58%
    07:00 +13°C° 0 mm 1 mps 631 mmHg 52%
    08:00 +16°C° 0 mm 1 mps 632 mmHg 45%
    09:00 +17°C° 0 mm 0 mps 634 mmHg 39%
    10:00 +20°C° 0 mm 1 mps 633 mmHg 38%
    11:00 +21°C° 0 mm 1 mps 633 mmHg 36%
    12:00 +21°C° 0 mm 2 mps 633 mmHg 35%
    13:00 +20°C° 0 mm 2 mps 632 mmHg 37%
    14:00 +20°C° 0 mm 2 mps 631 mmHg 40%
    15:00 +19°C° 0 mm 2 mps 631 mmHg 43%
    16:00 +16°C° 0 mm 2 mps 630 mmHg 53%
    17:00 +14°C° 0 mm 1 mps 630 mmHg 64%
    18:00 +11°C° 0 mm 1 mps 629 mmHg 75%
    19:00 +11°C° 0 mm 1 mps 629 mmHg 73%
    20:00 +11°C° 0 mm 1 mps 630 mmHg 72%
    21:00 +11°C° 0 mm 1 mps 630 mmHg 70%
    22:00 +11°C° 0 mm 1 mps 630 mmHg 68%
    23:00 +11°C° 0 mm 1 mps 629 mmHg 66%
    Show more